Regional Weather Roundup
Issued by NWS

Home | Current Version | Previous Version | Graphics & Text | Print | Product List | Glossary On
Versions: 1 2 3 4 5 6 7 8 9 10 11 12 13 14 15 16 17 18 19 20 21 22 23 24 25 26 27 28 29 30 31 32 33 34 35 36 37 38 39 40 41 42 43 44 45 46 47 48 49 50
000
ASUS45 KPSR 230810
RWRAZ

ARIZONA REGIONAL HOURLY WEATHER ROUNDUP
NATIONAL WEATHER SERVICE PHOENIX AZ
100 AM MST WED APR 23 2014

NOTE: FAIR INDICATES FEW OR NO CLOUDS BELOW 12,000 FEET WITH NO
SIGNIFICANT WEATHER AND/OR OBSTRUCTIONS TO VISIBILITY.

AZZ001>003-036-230900-
NORTHWEST ARIZONA

CITY           SKY/WX    TMP DP  RH WIND       PRES   REMARKS
BULLHEAD CITY  CLEAR     66  14  13 SE10      29.75S
KINGMAN        CLEAR     45   1  16 CALM      29.82R
$$

AZZ004>008-015-016-018-230900-
NORTH CENTRAL ARIZONA

CITY           SKY/WX    TMP DP  RH WIND       PRES   REMARKS
GRAND CANYON   PTCLDY    36  17  46 SW6       29.92S WCI  31
WILLIAMS       CLEAR     48  19  32 S8        30.00R
PRESCOTT       CLEAR     55  21  26 SW9       29.88S
FLAGSTAFF      CLEAR     48  19  31 W10       29.93S
PAYSON         CLEAR     59  28  31 SW7       29.91F
PAGE           CLEAR     61  10  13 SW5       29.77R
$$

AZZ009>014-017-230900-
NORTHEAST ARIZONA

CITY           SKY/WX    TMP DP  RH WIND       PRES   REMARKS
WINSLOW        CLEAR     59  30  33 S9        29.83F
SAINT JOHNS    MOCLDY    57  24  28 CALM      29.89F
WINDOW ROCK    CLOUDY    55  27  34 SW8       29.92S
SHOW LOW       PTCLDY    54  25  32 S20       29.94F
$$

AZZ023-230900-
GREATER PHOENIX AREA

CITY           SKY/WX    TMP DP  RH WIND       PRES   REMARKS
PHOENIX        PTCLDY    79  32  18 W14       29.71S
BUCKEYE          N/A     64  23  20 W9        29.74F
LUKE AFB       NOT AVBL
DEER VALLEY    CLEAR     73  31  21 SW12      29.73R
SCOTTSDALE     CLEAR     76  31  19 SW10G17   29.75R
MESA-GATEWAY   CLEAR     72  32  23 SW8       29.76F
$$

AZZ027-028-230900-
SOUTHWEST MARICOPA COUNTY AND PINAL COUNTY

CITY           SKY/WX    TMP DP  RH WIND       PRES   REMARKS
CASA GRANDE    CLEAR     72  28  20 S8        29.77F
$$

AZZ503-504-507>509-230900-
SOUTHEAST ARIZONA

CITY           SKY/WX    TMP DP  RH WIND       PRES   REMARKS
TUCSON         CLEAR     69  25  19 SE6       29.86F
DAVIS-MONTHAN  CLEAR     66  28  23 S7        29.85S
NOGALES        MOCLDY    65  25  22 S6        29.93S
SIERRA VISTA   MOCLDY    63  27  25 W12       29.94R
DOUGLAS        CLOUDY    67  21  17 W12       29.92S
SAFFORD        MOCLDY    71  27  19 NW20      29.80S
$$

AZZ020-021-025-026-031-230900-
SOUTHWEST ARIZONA

CITY           SKY/WX    TMP DP  RH WIND       PRES   REMARKS
YUMA           CLEAR     68  28  22 W9        29.77S
$$

CAZ031-033-041-043-047-048-061-230900-
SOUTHERN CALIFORNIA

CITY           SKY/WX    TMP DP  RH WIND       PRES   REMARKS
DOWNTOWN L.A.  CLEAR     59  48  67 CALM      29.93R
L.A. AIRPORT   MOCLDY    58  48  69 E7        29.93R
SAN DIEGO      PTCLDY    61  50  67 S6        29.97S
BURBANK        PTCLDY    63  23  21 N13       29.92S
ONTARIO        PTCLDY    55  48  77 NW3       29.94R
RIVERSIDE      CLEAR     56  48  74 CALM      29.94S
PALM SPRINGS   CLEAR     67  45  45 NW5       29.77R
EL CENTRO NAS  CLEAR     67  35  30 W18       29.76F
IMPERIAL       CLEAR     65  36  34 W12       29.76R
BLYTHE         CLEAR     68  28  22 S3        29.75S
NEEDLES        CLEAR     70  10  10 NW10      29.74F
$$

NVZ020-UTZ003-230900-
SOUTHERN NEVADA-UTAH

CITY           SKY/WX    TMP DP  RH WIND       PRES   REMARKS
LAS VEGAS      PTCLDY    66   1   7 W12       29.75S
SALT LAKE CITY LGT RAIN  41  41 100 VRB3      29.89R
$$

NMZ009-TXZ055-230900-
NEW MEXICO-WEST TEXAS

CITY           SKY/WX    TMP DP  RH WIND       PRES   REMARKS
ALBUQUERQUE    MOCLDY    64  29  26 S7        29.85F
EL PASO        CLOUDY    76  25  15 SW9       29.84F
$$


........................KEY........................
SKY/WX - SKY CONDITION/WEATHER
TMP    - TEMPERATURE IN FAHRENHEIT
DP     - DEW POINT IN FAHRENHEIT
RH     - RELATIVE HUMIDITY IN PERCENT
WIND   - DIRECTION AND SPEED IN MILES PER HOUR (MPH)
VRB    - VARIABLE WIND DIRECTION
PRES   - MEAN SEA LEVEL PRESSURE IN INCHES OF MERCURY
         F - FALLING PRESSURE   R - RISING PRESSURE
         S - STEADY PRESSURE
VSB    - VISIBILITY IN MILES
HX     - HEAT INDEX IN FAHRENHEIT
WCI    - WIND CHILL INDEX IN FAHRENHEIT
TC     - TEMPERATURE IN CELSIUS WHICH IS ALSO KNOWN AS
         TEMPERATURE IN CENTIGRADE
AFB    - AIR FORCE BASE
         LUKE AFB IS LUKE AIR FORCE BASE
         DAVIS-MONTHAN IS DAVIS-MONTHAN AIR FORCE BASE
NAS    - NAVAL AIR STATION
         EL CENTRO NAS IS EL CENTRO NAVAL AIR STATION
N/A    - NOT AVAILABLE



USA.gov is the U.S. government's official web portal to all federal, state and local government web resources and services.